Location: Brodeslavy
(49.9527°N, 13.5567°E)
Time: 05:11:41
(UTC+00:00)

COBE Rocket - Pass Details

Date: 17 June 2025
Orbit: 675 x 774 km, 97.1° (Epoch: 12 July)

Event Time Altitude Azimuth Distance (km) Brightness Sun altitude
Rises 21:15:21 0° 12° (NNE) 3,232 8.1 -12.6°
Reaches altitude 10° 21:17:42 10° 14° (NNE) 2,291 7.3 -12.7°
Maximum altitude 21:22:46 84° 102° (ESE) 750 3.9 -13.1°
Enters shadow 21:27:03 14° 192° (SSW) 1,969 5.6 -13.4°
